Airfield :
LOGIN :

Register | Disclaimer

   EN    FR    IT 

 










Legend :    VFR   Marginal VFR   IFR   Intensive IFR   Very Intensive IFR
Visi :
Ceiling :
>= 8 km
>= 3000ft
5 to 8 km
1000 to 3000 ft
1500m to 5 km
500 to 1000 ft
800 to 1500m
200 to 500 ft
< 800m
< 200 ft
Symbols :   Thunderstorms  Fog  Heavy snow  Heavy precipitations  Wind > 20 kt
SIGMETs :     Misc.  Thunderstorms  Icing  Turbulence  Mountain Waves  Volcanic Ashes






- Airport Elevation : 156 ft
- IATA code : OMO


LQMO - Mostar

CURRENT METAR :
  • 191300Z 27004KT 220V310 9999 FEW030 SCT050 25/19 Q1011

EXPIRED METARs :
  • 191200Z 34009KT 300V020 9999 -RA FEW010 SCT030 BKN050 23/19 Q1011
  • 191100Z 14005KT 100V210 9999 SCT050 27/16 Q1012

TAF TAF LQMO
Valid from the 19 at 12:00 until the 20 at 12:00 UTC


191100Z 1912/2012 19005KT 9999 SCT050 TX29/1914Z TN19/2004Z
PROB30
TEMPO 1912/1915 5000 TSRA FEW020 FEW035CB BKN045
PROB40
TEMPO 1923/2006 VRB15KT 4000 TSRA FEW030CB BKN040
TEMPO 2006/2012 25012KT



MET'MAP, your aeronautical weather chart ! - Copyright ORBIFLY December 2007 - Disclaimer

ORBIFLY MET'MAP TEAM :

Programming & Development : Alexandra Zaïnal
Concept & original design : Baudouin d'Aumeries
Assistance for programming : Marc-Olivier Méhu
Technical & hardware support : Manuel Goepfert

Contact : metmap@orbifly.com




SOURCES & CREDITS :

   NOAA